Flag for Brazil Weather past 2 weeks in Rio Branco, Acre, Brazil

Now
N/A

Light rain.


Feels Like: N/A
Forecast: 71 / 90 °F
Wind: 7 mph from North

Location: Rio Branco Airport

Current Time: Dec 21, 2014 at 12:39:10 AM

Latest Report: Dec 21, 2014 at 12:00 AM


Visibility: N/A

Pressure: N/A

Humidity: N/A

Dew point: N/A

Location of Rio BrancoLocation

Historic Weather in Rio Branco — Graph

°F

Rio Branco temperature yesterday

Maximum temperature yesterday: 88 °F (at 2:00 PM)
Minimum temperature yesterday: 37 °F (at 10:00 PM)
Average temperature yesterday: 76 °F

Past Weeks' High & Low Weather Summary

 TemperatureHumidityPressure
High90 °F (Dec 6, 2:00 PM)100% (Dec 10, 12:00 AM)29.95 "Hg (Dec 10, 12:00 AM)
Low37 °F (Dec 20, 10:00 PM)21% (Dec 13, 3:00 PM)29.65 "Hg (Dec 6, 5:00 PM)
Average77 °F83%29.82 "Hg
* Reported Dec 5 11:00 PM — Dec 20 11:00 PM, Rio Branco, Weather by CustomWeather, © 2014

Note: Actual official high and low records may vary slightly from our data, if they occured in-between our weather recording intervals... More about our weather records

Advertising

Rio Branco weather history for previous 24 hours

 ConditionsComfort  
Time TempWeatherWind HumidityBarometerVisibility
11:00 PM
Dec 20
N/AThunderstorms.10 mphN/AN/A3 mi
10:00 PM37 °FThunderstorms. Partly cloudy.21 mph100%29.86 "Hg3 mi
9:00 PM75 °FPassing clouds.2 mph89%29.80 "HgN/A
8:00 PM75 °FPassing clouds.3 mph89%29.77 "HgN/A
7:00 PM75 °FPassing clouds.3 mph89%29.74 "HgN/A
6:00 PM77 °FPartly sunny.2 mph83%29.71 "HgN/A
5:00 PM77 °FScattered showers. Broken clouds.2 mph83%N/AN/A
4:00 PM77 °FLight rain. Broken clouds.6 mph83%N/AN/A
3:00 PM81 °FScattered showers. Partly sunny.14 mph74%N/AN/A
2:00 PM88 °FPartly sunny.12 mph62%29.71 "HgN/A
1:00 PM86 °FBroken clouds.13 mph62%29.77 "HgN/A
12:00 PM84 °FPartly sunny.10 mph66%29.80 "HgN/A
11:00 AM84 °FBroken clouds.13 mph74%29.83 "HgN/A
10:00 AM82 °FBroken clouds.8 mph74%29.86 "HgN/A
9:00 AM79 °FBroken clouds.9 mph84%29.86 "HgN/A
8:00 AM73 °FLight rain. Broken clouds.2 mph94%29.86 "HgN/A
7:00 AM73 °FSunny.7 mph94%29.83 "Hg10 mi
6:00 AM73 °FLight rain. Mostly cloudy.7 mph94%29.80 "Hg3 mi
5:00 AM73 °FLight rain. Mostly cloudy.6 mph100%29.80 "Hg3 mi
4:00 AM73 °FLight rain. Mostly cloudy.6 mph100%29.77 "Hg3 mi
3:00 AM75 °FPartly cloudy.7 mph94%29.77 "HgN/A
2:00 AM75 °FPartly cloudy.3 mph94%29.77 "HgN/A
1:00 AM75 °FPassing clouds.3 mph94%29.77 "HgN/A
12:00 AM75 °FPassing clouds.6 mph94%29.77 "HgN/A
Weather by CustomWeather, © 2014

See weather overviewHow to use our weather pages